This is the latest recevied weather packets stored in our database for station/object K5OBH. If no packets are shown the sender has not sent any weather packets the latest 10 day(s).
| Time | Temp. | Humidity | Pressure | Rain* | Wind** | Luminosity | Snow |
|---|---|---|---|---|---|---|---|
| 1777478858 | 14.44° C | 70% | 1019.2 hPa | 0 mm | - | 300 W/m² | - |
| 1777478553 | 13.89° C | 71% | 1018.9 hPa | 0 mm | - | 291 W/m² | - |
| 1777478251 | 13.89° C | 71% | 1019.2 hPa | 0 mm | - | 299 W/m² | - |
| 1777477947 | 13.89° C | 71% | 1018.8 hPa | 0 mm | - | 268 W/m² | - |
| 1777477643 | 13.89° C | 71% | 1018.9 hPa | 0 mm | - | 327 W/m² | - |
| 1777477340 | 13.89° C | 71% | 1018.8 hPa | 0 mm | - | 298 W/m² | - |
| 1777477036 | 13.89° C | 71% | 1018.8 hPa | 0 mm | - | 466 W/m² | - |
| 1777476734 | 13.33° C | 72% | 1018.7 hPa | 0 mm | - | 453 W/m² | - |
| 1777476430 | 12.78° C | 73% | 1018.7 hPa | 0 mm | - | 258 W/m² | - |
| 1777476127 | 12.78° C | 72% | 1018.7 hPa | 0 mm | - | 248 W/m² | - |
| 1777475822 | 12.78° C | 73% | 1018.9 hPa | 0 mm | - | 204 W/m² | - |
| 1777475519 | 12.78° C | 73% | 1018.9 hPa | 0 mm | - | 356 W/m² | - |
| 1777475215 | 12.78° C | 74% | 1018.8 hPa | 0 mm | - | 452 W/m² | - |
| 1777474911 | 12.22° C | 75% | 1018.7 hPa | 0 mm | - | 371 W/m² | - |
| 1777474606 | 12.22° C | 75% | 1018.7 hPa | 0 mm | - | 372 W/m² | - |
| 1777474303 | 11.67° C | 77% | 1018.8 hPa | 0 mm | - | 285 W/m² | - |
| 1777474000 | 11.67° C | 77% | 1018.5 hPa | 0 mm | - | 208 W/m² | - |
| 1777473698 | 11.67° C | 77% | 1018.6 hPa | 0 mm | - | 324 W/m² | - |
| 1777473394 | 11.67° C | 77% | 1018.5 hPa | 0 mm | - | 192 W/m² | - |
| 1777473090 | 11.11° C | 79% | 1018.5 hPa | 0 mm | - | 208 W/m² | - |
| 1777472787 | 11.11° C | 78% | 1018.8 hPa | 0 mm | - | 270 W/m² | - |
| 1777472483 | 10.56° C | 79% | 1018.8 hPa | 0 mm | - | 168 W/m² | - |
| 1777472181 | 11.11° C | 79% | 1018.6 hPa | 0 mm | - | 186 W/m² | - |
| 1777471880 | 10.56° C | 79% | 1018.6 hPa | 0 mm | - | 212 W/m² | - |
| 1777471578 | 10.56° C | 80% | 1018.6 hPa | 0 mm | - | 217 W/m² | - |
* Rain latest hour (hover to see other rain measurements)
** Current wind speed in m/s (hover to see current wind gust speed)